Stations météo

réclame
Mon MeteoGroup
Plymouth, Grande-Bretagne (3827): Température de l'air & dewpoint: 13.11.2017 19:00:00 - 19.11.2017 19:00:00 (GMT)Plymouth, Grande-Bretagne (3827): Vitesse du vent: 13.11.2017 19:00:00 - 19.11.2017 19:00:00 (GMT)Plymouth, Grande-Bretagne (3827): Direction du vent: 13.11.2017 19:00:00 - 19.11.2017 19:00:00 (GMT)Plymouth, Grande-Bretagne (3827): reduced air pressure: 13.11.2017 19:00:00 - 19.11.2017 19:00:00 (GMT)Plymouth, Grande-Bretagne (3827): visibility: 13.11.2017 19:00:00 - 19.11.2017 19:00:00 (GMT)Plymouth, Grande-Bretagne (3827): Quantités de précipitations: 13.11.2017 19:00:00 - 19.11.2017 19:00:00 (GMT)
Date & Time tt [°C] td [°C] ff [km/h] ff [knt] dd ppp [hPa] vv [km] rr [mm]
19.11.2017 19:00:00 9,2 8,8 5 3 E 1024,3 3,5 0,2
19.11.2017 18:00:00 9,3 8,7 8 4 E 1024,1 10 0,0
19.11.2017 17:00:00 9,4 8,4 8 4 E 1024,3 7 0,2
19.11.2017 16:00:00 10,1 7,8 4 2 ESE 1024,5 20 0,0
19.11.2017 15:00:00 10,5 7,3 5 3 ESE 1024,7 30 0,0
19.11.2017 14:00:00 10,8 6,9 4 2 S 1024,9 30 0,0
19.11.2017 13:00:00 10,9 5,8 4 2 ESE 1025,2 27 0,0
19.11.2017 12:00:00 11,1 6,4 0 0 N 1025,4 26 0,0
19.11.2017 11:00:00 10,6 6,7 5 3 ESE 1025,4 17 0,0
19.11.2017 10:00:00 9,6 6,7 4 2 E 1025,1 26 0,0
19.11.2017 09:00:00 8,8 7,0 5 3 E 1025,2 15 0,0
19.11.2017 08:00:00 8,5 7,0 4 2 NE 1025,1 35 0,0
19.11.2017 07:00:00 8,6 7,0 5 3 E 1024,3 35 0,0
19.11.2017 06:00:00 8,5 7,2 4 2 N 1024,2 40 0,0
19.11.2017 05:00:00 8,6 7,5 8 4 N 1024,0 30 0,0
19.11.2017 04:00:00 8,8 7,8 9 5 N 1023,5 40 0,0
19.11.2017 03:00:00 10,0 9,5 11 6 NNW 1023,5 21 0,0
19.11.2017 02:00:00 10,6 10,1 15 8 NW 1023,3 26 -
19.11.2017 01:00:00 11,7 10,9 15 8 W 1023,2 4,1 0,0
19.11.2017 00:00:00 11,6 10,8 16 9 W 1023,2 17 0,0
18.11.2017 23:00:00 11,6 10,9 16 9 W 1023,1 13 0,0
18.11.2017 22:00:00 11,7 10,7 16 9 W 1023,3 11 0,0
18.11.2017 21:00:00 11,1 10,1 16 9 W 1023,6 14 0,0
18.11.2017 20:00:00 11,0 10,0 21 11 W 1023,6 23 0,0
18.11.2017 19:00:00 11,0 9,8 21 11 W 1023,8 14 0,0
18.11.2017 18:00:00 11,0 9,4 21 11 W 1024,0 22 0,0
18.11.2017 17:00:00 10,8 9,1 18 10 W 1024,1 15 0,0
18.11.2017 16:00:00 11,0 8,9 22 12 W 1024,1 26 0,0
18.11.2017 15:00:00 11,4 9,3 21 11 W 1024,4 23 0,0
18.11.2017 14:00:00 11,5 9,2 21 11 W 1025,0 16 0,0
18.11.2017 13:00:00 11,8 9,2 18 10 W 1025,5 19 0,0
18.11.2017 12:00:00 11,0 8,7 16 9 WSW 1026,2 26 0,0
18.11.2017 11:00:00 8,9 7,0 8 4 WSW 1026,8 23 0,0
18.11.2017 10:00:00 7,1 5,5 5 3 WSW 1026,8 20 0,0
18.11.2017 09:00:00 4,3 2,2 5 3 E 1027,1 21 0,0
18.11.2017 08:00:00 2,8 1,6 8 4 ENE 1026,8 23 0,0
18.11.2017 07:00:00 3,0 1,3 2 1 S 1026,8 14 0,0
18.11.2017 06:00:00 2,4 1,5 8 4 E 1027,4 16 0,0
18.11.2017 05:00:00 2,0 0,9 2 1 SSE 1027,6 12 0,0
18.11.2017 04:00:00 1,7 0,6 0 0 N 1027,9 14 0,0
18.11.2017 03:00:00 1,9 0,8 8 4 NE 1028,3 12 0,0
18.11.2017 02:00:00 2,5 0,9 9 5 ENE 1028,7 18 0,0
18.11.2017 01:00:00 1,7 0,7 8 4 ENE 1029,0 12 0,0
18.11.2017 00:00:00 2,0 1,1 5 3 NE 1029,4 11 0,0
17.11.2017 23:00:00 2,2 1,1 5 3 NNE 1029,5 9 0,0
17.11.2017 22:00:00 3,5 1,5 8 4 E 1029,6 16 0,0
17.11.2017 21:00:00 3,0 1,5 8 4 E 1029,6 9 0,0
17.11.2017 20:00:00 3,7 2,0 8 4 NE 1029,5 10 0,0
17.11.2017 19:00:00 5,3 1,8 9 5 E 1029,7 21 0,0
17.11.2017 18:00:00 5,8 2,3 8 4 NE 1029,8 14 0,0
17.11.2017 17:00:00 6,5 1,3 8 4 ESE 1029,5 18 0,0
17.11.2017 16:00:00 7,9 1,5 5 3 SE 1029,5 27 0,0
17.11.2017 15:00:00 9,9 1,7 4 2 S 1029,5 40 0,0
17.11.2017 14:00:00 10,4 2,9 5 3 WSW 1029,9 25 0,0
17.11.2017 13:00:00 11,1 2,4 4 2 E 1030,2 22 0,0
17.11.2017 12:00:00 10,0 2,7 8 4 ENE 1030,8 12 0,0
17.11.2017 11:00:00 9,1 2,9 11 6 ENE 1030,7 17 0,0
17.11.2017 10:00:00 7,5 2,5 9 5 ENE 1030,4 22 0,0
17.11.2017 09:00:00 4,8 2,1 5 3 NE 1030,5 21 0,0
17.11.2017 08:00:00 3,4 1,0 4 2 N 1030,2 22 0,0
17.11.2017 07:00:00 4,0 0,2 4 2 NE 1030,0 40 0,0
17.11.2017 06:00:00 5,0 0,7 5 3 E 1029,7 25 0,0
17.11.2017 05:00:00 6,0 0,6 15 8 NE 1029,5 17 0,0
17.11.2017 04:00:00 6,4 1,2 11 6 ENE 1029,3 25 0,0
17.11.2017 03:00:00 7,1 1,7 11 6 ENE 1029,3 26 0,0
17.11.2017 02:00:00 7,2 1,5 11 6 ENE 1029,1 14 0,0
17.11.2017 01:00:00 7,1 2,9 13 7 NE 1028,9 26 0,0
17.11.2017 00:00:00 5,6 3,1 9 5 NNE 1028,6 35 0,0
16.11.2017 23:00:00 5,8 2,6 11 6 N 1028,5 20 0,0
16.11.2017 22:00:00 6,2 3,1 11 6 N 1028,4 18 0,0
16.11.2017 21:00:00 7,1 4,9 11 6 NNW 1027,7 19 0,0
16.11.2017 20:00:00 7,7 5,3 9 5 NNE 1027,3 13 0,0
16.11.2017 19:00:00 8,4 5,4 8 4 NNE 1026,7 21 -
16.11.2017 18:00:00 9,2 5,9 15 8 NNE 1026,1 35 0,0
16.11.2017 17:00:00 10,1 8,0 21 11 N 1025,3 30 -
16.11.2017 16:00:00 12,3 10,1 13 7 WNW 1024,5 35 0,0
16.11.2017 15:00:00 12,8 9,2 15 8 WNW 1023,9 28 0,0
16.11.2017 14:00:00 13,1 10,8 13 7 W 1023,8 23 0,0
16.11.2017 13:00:00 13,3 9,3 13 7 WNW 1024,0 30 0,0
16.11.2017 12:00:00 13,4 10,4 13 7 W 1024,1 22 0,0
16.11.2017 11:00:00 12,4 10,0 9 5 W 1024,1 19 0,0
16.11.2017 10:00:00 11,0 9,2 5 3 W 1023,9 22 0,0
16.11.2017 09:00:00 9,9 8,5 9 5 W 1023,6 20 0,0
16.11.2017 08:00:00 10,1 8,8 9 5 W 1023,3 17 0,0
16.11.2017 07:00:00 10,1 8,3 5 3 NW 1022,8 15 0,0
16.11.2017 06:00:00 10,6 9,1 8 4 WNW 1022,4 18 0,0
16.11.2017 05:00:00 11,3 9,5 11 6 WNW 1022,1 17 0,0
16.11.2017 04:00:00 11,8 9,7 15 8 SSW 1022,2 15 0,0
16.11.2017 03:00:00 11,7 9,5 16 9 SSW 1022,5 23 0,0
16.11.2017 02:00:00 11,6 9,7 15 8 SSW 1022,6 22 0,0
16.11.2017 01:00:00 11,4 9,4 11 6 SW 1023,3 24 0,0
16.11.2017 00:00:00 11,5 9,7 13 7 SW 1023,8 30 0,0
15.11.2017 23:00:00 11,2 9,9 9 5 WSW 1023,7 26 0,0
15.11.2017 22:00:00 11,3 10,0 9 5 WSW 1023,9 20 0,0
15.11.2017 21:00:00 11,6 9,9 13 7 SW 1024,0 19 0,0
15.11.2017 20:00:00 11,5 9,7 13 7 SSW 1023,7 19 0,0
15.11.2017 19:00:00 11,7 10,4 9 5 SW 1023,9 14 0,0
15.11.2017 18:00:00 11,6 10,2 9 5 SW 1024,1 17 0,0
15.11.2017 17:00:00 11,6 10,2 9 5 WSW 1024,3 19 0,0
15.11.2017 16:00:00 11,9 9,9 8 4 WSW 1024,3 17 0,0
15.11.2017 15:00:00 12,8 10,1 9 5 SW 1024,7 21 0,0
15.11.2017 14:00:00 13,0 11,2 9 5 W 1025,0 17 0,0
15.11.2017 13:00:00 13,3 11,0 8 4 WSW 1025,0 22 0,0
15.11.2017 12:00:00 12,7 11,1 4 2 SW 1025,3 25 0,0
15.11.2017 11:00:00 12,5 11,0 4 2 W 1025,9 30 0,0
15.11.2017 10:00:00 12,1 11,1 4 2 W 1025,8 14 0,0
15.11.2017 09:00:00 11,6 10,9 4 2 W 1025,6 16 0,0
15.11.2017 08:00:00 11,3 10,5 9 5 W 1025,6 19 0,0
15.11.2017 07:00:00 11,3 10,7 13 7 WSW 1025,4 27 0,0
15.11.2017 06:00:00 11,2 10,8 11 6 WSW 1025,1 14 0,0
15.11.2017 05:00:00 11,1 10,4 9 5 W 1025,1 16 0,0
15.11.2017 04:00:00 11,1 10,5 11 6 W 1025,0 20 0,0
15.11.2017 03:00:00 11,2 10,6 16 9 W 1025,1 18 0,0
15.11.2017 02:00:00 11,3 10,7 22 12 W 1025,2 20 -
15.11.2017 01:00:00 11,2 10,7 18 10 W 1025,2 16 0,0
15.11.2017 00:00:00 11,1 10,8 18 10 WSW 1025,4 13 0,0
14.11.2017 23:00:00 11,1 10,8 16 9 W 1025,5 3,3 0,2
14.11.2017 22:00:00 11,4 10,7 24 13 WSW 1025,6 5 0,0
14.11.2017 21:00:00 11,4 10,4 18 10 WSW 1025,4 2,6 0,0
14.11.2017 20:00:00 11,1 10,0 22 12 WSW 1025,5 21 0,0
14.11.2017 19:00:00 11,3 9,8 16 9 W 1025,4 27 0,0
14.11.2017 18:00:00 10,5 9,5 9 5 W 1025,2 21 0,0
14.11.2017 17:00:00 10,7 9,2 13 7 W 1025,0 16 -
14.11.2017 16:00:00 11,3 9,2 18 10 W 1025,1 30 0,0
14.11.2017 15:00:00 11,5 9,1 21 11 WSW 1025,2 19 0,0
14.11.2017 14:00:00 11,4 9,1 22 12 WSW 1025,3 16 0,0
14.11.2017 13:00:00 11,4 9,0 22 12 WSW 1025,6 28 0,0
14.11.2017 12:00:00 11,5 8,8 22 12 WSW 1025,8 20 0,0
14.11.2017 11:00:00 11,3 8,3 21 11 WSW 1026,2 20 0,0
14.11.2017 10:00:00 10,9 8,8 21 11 WSW 1026,0 14 0,0
14.11.2017 09:00:00 10,8 7,8 18 10 WSW 1025,8 11 0,0
14.11.2017 08:00:00 10,6 7,5 22 12 WSW 1025,6 13 0,0
14.11.2017 07:00:00 10,2 7,2 18 10 WSW 1025,4 16 0,0
14.11.2017 06:00:00 10,1 7,0 18 10 W 1025,5 16 0,0
14.11.2017 05:00:00 9,9 6,8 21 11 W 1025,6 21 0,0
14.11.2017 04:00:00 9,7 6,6 21 11 W 1025,8 17 -
14.11.2017 03:00:00 9,5 6,4 21 11 WSW 1026,1 19 0,0
14.11.2017 02:00:00 8,6 6,2 13 7 W 1026,8 30 0,0
14.11.2017 01:00:00 8,5 6,1 11 6 W 1027,0 16 0,0
14.11.2017 00:00:00 8,1 5,7 9 5 WNW 1027,4 14 0,0
13.11.2017 23:00:00 7,5 5,3 5 3 WNW 1027,7 16 -
13.11.2017 22:00:00 7,5 5,4 8 4 W 1027,7 30 0,0
13.11.2017 21:00:00 5,8 4,4 5 3 W 1028,2 22 0,0
13.11.2017 20:00:00 7,0 4,4 5 3 WNW 1028,2 21 0,0
13.11.2017 19:00:00 7,8 4,7 5 3 WNW 1028,5 23 0,0

tt = Température de l'air
td = dewpoint
ff = Vitesse du vent
dd = Direction du vent
ppp = reduced air pressure
vv = visibility
rr = Quantités de précipitations

stations d'obs. à proximité